Regional Weather Roundup
Issued by NWS Little Rock, AR

Home | Current Version | Previous Version | Graphics & Text | Print | Product List | Glossary On
Versions: 1 2 3 4 5 6 7 8 9 10 11 12 13 14 15 16 17 18 19 20 21 22 23 24 25 26 27 28 29 30 31 32 33 34 35 36 37 38 39 40 41 42 43 44 45 46 47 48 49 50
000
ASUS44 KLZK 012105
RWRLZK

WEATHER ROUNDUP FOR ARKANSAS
NATIONAL WEATHER SERVICE LITTLE ROCK AR
400 PM CDT TUE SEP 01 2015

NOTE: "FAIR" INDICATES FEW OR NO CLOUDS BELOW 12,000 FEET WITH NO
SIGNIFICANT WEATHER AND/OR OBSTRUCTIONS TO VISIBILITY.

ARZ001-003-010-029-012200-
NORTHWEST ARKANSAS

CITY           SKY/WX    TMP DP  RH WIND       PRES   REMARKS
FAYETTEVILLE   SUNNY     85  66  53 S9        30.07F HX  87
FORT SMITH     PTSUNNY   93  61  34 CALM      30.00F HX  93
HARRISON       SUNNY     87  62  43 S9        30.07F HX  87
BENTONVILLE    SUNNY     88  63  42 S10       30.08F HX  88
ROGERS         SUNNY     87  64  46 S10       30.08S HX  88
SILOAM SPGS    SUNNY     88  63  42 S13       30.04F HX  88
HIGHFILL       MOSUNNY   87  65  47 S12       30.06F HX  89
SPRINGDALE     MOSUNNY   88  64  45 S12G17    30.09F HX  89
$$

ARZ004-005-016-012200-
NORTH CENTRAL ARKANSAS

CITY           SKY/WX    TMP DP  RH WIND       PRES   REMARKS
BATESVILLE     CLOUDY    88  73  62 SE5       30.05F HX  96
FLIPPIN        MOSUNNY   91  66  43 SE10      30.03F HX  94
MTN HOME       MOSUNNY   86  67  52 SE7       30.05F HX  89
$$

ARZ040-041-012200-
WEST CENTRAL ARKANSAS

CITY           SKY/WX    TMP DP  RH WIND       PRES   REMARKS
MENA           SUNNY     93  63  36 S6        30.06S HX  94
MOUNT IDA      MOSUNNY   91  63  39 SE8G18    30.04S HX  92
$$

ARZ009-017-025-026-028-012200-
NORTHEAST ARKANSAS

CITY           SKY/WX    TMP DP  RH WIND       PRES   REMARKS
JONESBORO      PTSUNNY   87  67  51 SE5       30.05F HX  90
NEWPORT        CLOUDY    88  74  63 E7        30.06F HX  96
WALNUT RIDGE   PTSUNNY   90  68  48 SE6       30.04F HX  93
BLYTHEVILLE    MOSUNNY   90  69  50 VRB3      30.06F HX  94
$$

ARZ022-023-033-042-044-012200-
CENTRAL ARKANSAS

CITY           SKY/WX    TMP DP  RH WIND       PRES   REMARKS
LITTLE ROCK    PTSUNNY   91  62  37 S8        30.04F HX  91
N LITTLE ROCK  PTSUNNY   89  66  46 S8        30.04F HX  91
JACKSONVILLE   CLOUDY    91  63  39 SE6       30.03F HX  92
SEARCY         CLOUDY    91  70  49 CALM      30.05F HX  96
HOT SPRINGS    PTSUNNY   87  64  46 S3        30.05F HX  88
RUSSELLVILLE   MOSUNNY   93  63  36 VRB6      30.02F HX  94
$$

ARZ036-012200-
EAST ARKANSAS

CITY           SKY/WX    TMP DP  RH WIND       PRES   REMARKS
WEST MEMPHIS   MOSUNNY   90  68  48 CALM      30.03F HX  94
$$

ARZ050-053-066-070-073-012200-
SOUTHWEST ARKANSAS

CITY           SKY/WX    TMP DP  RH WIND       PRES   REMARKS
ARKADELPHIA    FAIR      93  66  40 VRB5      30.04F HX  95
CAMDEN         PTSUNNY   88  68  51 SW3       30.04F HX  91
TEXARKANA      PTSUNNY   90  67  46 SE10      30.03F HX  93
EL DORADO      CLOUDY    88  66  48 S9        30.05F HX  90
DE QUEEN       MOSUNNY   91  69  48 S9G18     30.01F HX  96
$$

ARZ056-057-069-012200-
SOUTHEAST ARKANSAS

CITY           SKY/WX    TMP DP  RH WIND       PRES   REMARKS
PINE BLUFF     PTSUNNY   92  64  39 CALM      30.03F HX  93
STUTTGART      PTSUNNY   91  70  49 W5        30.04F HX  97
MONTICELLO     CLOUDY    91  67  44 CALM      30.03F HX  94

$$




USA.gov is the U.S. government's official web portal to all federal, state and local government web resources and services.